« Back
NWS Peachtree City, Ga » Text Product » GA Regional Weather Roundup


Printer-friendly Version
Current Version              Previous Versions:   1  2  3  4  5  6  7  8  9  

Regional Weather Roundup

720
ASUS42 KFFC 050703
RWRGA
WEATHER ROUNDUP FOR GEORGIA
NATIONAL WEATHER SERVICE PEACHTREE CITY GA
300 AM EDT WED AUG 05 2015

NOTE: "FAIR" INDICATES FEW OR NO CLOUDS BELOW 12,000 FEET WITH NO
SIGNIFICANT WEATHER AND/OR OBSTRUCTIONS TO VISIBILITY.

* = USE WITH CAUTION. THE STATIONS MARKED WITH AN ASTERISK MAY NOT
REPORT WEATHER SUCH AS PRECIPITATION, FOG, OR THUNDER AND ARE NOT
QUALITY CONTROLLED BY NWS.

THE REMARK "TC" DENOTES TEMPERATURE READING IN DEGREES CELSIUS.

GAZ001>058-050800-
NORTH GEORGIA

CITY           SKY/WX    TMP DP  RH WIND       PRES   REMARKS
ATLANTA        PTCLDY    78  67  68 SW8       30.03F
ATHENS         PTCLDY    76  68  76 CALM      30.03F
CHAMBLEE       CLEAR     74  66  76 CALM      30.03F
PEACHTREE CITY CLEAR     73  69  87 CALM      30.04F
ROME           MOCLDY    76  70  82 NW3       30.01S
WEST ATLANTA   CLEAR     77  68  73 CALM      30.02F
GAINESVILLE    PTCLDY    77  65  66 CALM      30.07F
CARTERSVILLE   PTCLDY    70  66  87 CALM      30.03S


CITY           SKY/WX    TMP DP  RH WIND       PRES   REMARKS
DALTON*        MOCLDY    72  72 100 CALM      30.01F
MARIETTA       CLEAR     78  67  69 S3        30.04S
BLAIRSVILLE*   HAZE      65  58  77 CALM      30.10F VSB 1/4
$$

GAZ059>098-102>109-050800-
CENTRAL GEORGIA

CITY           SKY/WX    TMP DP  RH WIND       PRES   REMARKS
AUGUSTA-BUSH   CLEAR     76  71  85 CALM      30.00S
AUGUSTA-DANIEL CLEAR     80  70  71 CALM      30.02S
COLUMBUS       CLEAR     79  70  74 CALM      30.02F
MACON          CLEAR     77  72  84 CALM      30.03S
ROBINS AFB     CLEAR     75  73  92 S5        30.02S


CITY           SKY/WX    TMP DP  RH WIND       PRES   REMARKS
LAGRANGE*      CLEAR     74  74 100 CALM      30.03S
SYLVANIA*      CLEAR     78  75  90 W3        30.04R
MILLEDGEVILLE* CLEAR     77  72  83 CALM      30.02S
$$

GAZ099>101-110>166-050800-
SOUTH GEORGIA

CITY           SKY/WX    TMP DP  RH WIND       PRES   REMARKS
SAVANNAH       PTCLDY    77  71  82 SW5       30.02F
VALDOSTA       NOT AVBL
ALMA           CLEAR     74  72  93 SW3       30.03F
ST SIMONS      CLEAR     78  74  87 SW8       30.04F
ALBANY         CLEAR     77  74  90 SW3       30.05F
HUNTER AFB     PTCLDY    76  74  95 SW5       30.00F
MOODY AFB      CLEAR     74  72  93 SW3       30.03F
BRUNSWICK      CLEAR     77  72  83 SW7       30.05F


CITY           SKY/WX    TMP DP  RH WIND       PRES   REMARKS
BAINBRIDGE*    CLEAR     79  77  94 S5        30.04F
MOULTRIE*      CLEAR     77  73  88 CALM      30.05F
VIDALIA*       CLEAR     77  73  88 SW5       30.04S
WAYCROSS*      CLEAR     77  76  98 SW3       30.04F
DOUGLAS*       CLEAR     77  73  88 S3        30.06S
$$



USA.gov is the U.S. government's official web portal to all federal, state and local government web resources and services.